Location: Dalton
(34.7700°N, 84.9700°W)
Time: 05:18:11
(UTC-04:00)

Hubble Space Telescope - Pass Details

Date: 12 October 2017
Orbit: 537 x 541 km, 28.5° (Epoch: 18 October)

Event Time Altitude Azimuth Distance (km) Brightness Sun altitude
Exits shadow 06:24:56 11° 204° (SSW) 1,731 3.1 -16.9°
Maximum altitude 06:24:58 11° 203° (SSW) 1,731 3.1 -16.9°
Drops below altitude 10° 06:26:01 10° 189° (S) 1,783 3.3 -16.7°
Sets 06:29:58 0° 151° (SSE) 2,672 4.7 -15.9°
